x

Frying Pan Shoals, Nc Buoy (41013) Wave Buoy

2:50pm - Sun 5th Jul 2015 All times are EDT. -4 hours from GMT.

  • Sig Wave height 3.0ft
  • Swell Direction
  • Peak Period 8s
  • Average Period 5s
  • Wind
    11mph, 13mph gusts
  • Sea Temp 80°f
  • Air Temp 82°f
  • Sea Pressure 1021.3mb
  • Frying Pan Shoals, Nc Buoy
  • Frying Pan Shoals, Nc Buoy

More Historic Weather Station data

Upgrade to MSW Pro to gain access to the past 30 days of data for over 8000 Wavebouys and Weather Stations around the globe.

Join Pro

Comparision Forecast

View Surf forecast
   
Sun 07/05 2:50pm 3ft 8s 5s 11 13 mph 1021.3mb 80f 82f
1:50pm 3ft 5s 5s 7 9 mph 1021.8mb 80f 81f
12:50pm 2.5ft 9s 5s 9
mph
1021.7mb 79f 81f
11:50am 2.5ft 5s 5s 9 11 mph 1021.6mb 79f 80f
10:50am 2.5ft 9s 5s 11 13 mph 1021.6mb 79f 81f
9:50am 2.5ft 5s 4s 9 11 mph 1021.8mb 78f 80f
8:50am 3ft 5s 5s 7 9 mph 1021.7mb 78f 80f
7:50am 3ft 5s 5s 9
mph
1021.4mb 78f 80f
6:50am 3.5ft 5s 5s 9 11 mph 1020.8mb 78f 80f
5:50am 3.5ft 5s 5s 9 11 mph 1020.2mb 78f 80f
4:50am 3.5ft 6s 5s 11
mph
1019.8mb 78f 80f
3:50am 3.5ft 5s 4s 13 16 mph 1019.5mb 78f 80f
2:50am 3.5ft 5s 5s 16 18 mph 1019.2mb 78f 80f
1:50am 4ft 5s 5s 16 18 mph 1019.2mb 78f 80f
12:50am 3.5ft 5s 5s 18 20 mph 1019.1mb 78f 81f
Sat 07/04 11:50pm 3.5ft 5s 4s 18 22 mph 1019.1mb 78f 81f
10:50pm 4ft 6s 5s 18 20 mph 1019.2mb 79f 81f
9:50pm 3.5ft 5s 4s 18 20 mph 1018.9mb 79f 81f
8:50pm 3.5ft 9s 5s 16 20 mph 1018.6mb 79f 81f
7:50pm 4.5ft 6s 5s 16 18 mph 1018.1mb 79f 81f
6:50pm 4.5ft 6s 5s 13 16 mph 1018mb 79f 81f
5:50pm 4.5ft 6s 5s 13 16 mph 1017.9mb 79f 81f
4:50pm 4.5ft 6s 5s 16 18 mph 1018mb 79f 81f
3:50pm 5ft 7s 5s 13 18 mph 1018.3mb 79f 81f
2:50pm 5ft 6s 5s 13 16 mph 1018.6mb 79f 81f
1:50pm 4.5ft 6s 5s 13 16 mph 1018.7mb 79f 81f
12:50pm 4.5ft 6s 5s 16 18 mph 1018.6mb 79f 81f
11:50am 4.5ft 6s 5s 11 13 mph 1018.8mb 79f 80f
10:50am 4.5ft 6s 5s 13 16 mph 1018.3mb 78f 80f
9:50am 5ft 6s 5s 16 18 mph 1018mb 78f 80f
8:50am 5ft 6s 5s 20 25 mph 1018mb 78f 80f
7:50am 5.5ft 6s 5s 20 22 mph 1017.6mb 78f 81f
6:50am 5.5ft 6s 5s 22 25 mph 1017.3mb 78f 81f
5:50am 6ft 6s 5s 27 31 mph 1016.5mb 79f 81f
4:50am 5ft 6s 5s 25 31 mph 1015.4mb 79f 81f
3:50am 5ft 6s 5s 27 31 mph 1015.6mb 79f 83f
2:50am 5.5ft 6s 5s 20 27 mph 1015.6mb 79f 81f
1:50am 6ft 7s 5s 22 27 mph 1015.4mb 79f 81f
12:50am 6.5ft 6s 5s 25 29 mph 1015.6mb 79f 81f
Fri 07/03 11:50pm 6ft 6s 5s 25 29 mph 1015.5mb 79f 81f
10:50pm 5.5ft 6s 5s 25 29 mph 1014.9mb 79f 81f
9:50pm 6ft 6s 5s 25 29 mph 1014.7mb 79f 81f
8:50pm 6ft 6s 5s 25 29 mph 1014.4mb 79f 80f
7:50pm 6ft 6s 5s 22 27 mph 1014.4mb 79f 79f
6:50pm 5.5ft 6s 5s 25 29 mph 1014.4mb 80f 78f
5:50pm 5.5ft 6s 5s 22 29 mph 1014.8mb 80f 81f
4:50pm 5ft 6s 5s 22 27 mph 1014.4mb 80f 81f
3:50pm 5ft 6s 5s 18 22 mph 1015mb 80f 81f
2:50pm 5ft 6s 5s 20 25 mph 1015.6mb 79f 81f
1:50pm 6ft 7s 5s 20 25 mph 1016mb 79f 80f
12:50pm 5.5ft 6s 5s 25 29 mph 1016.3mb 79f 80f
11:50am 5.5ft 6s 5s 22 27 mph 1016.5mb 79f 80f
10:50am 5ft 6s 5s 22 27 mph 1016.2mb 79f 80f
9:50am 5ft 6s 5s 22 27 mph 1016.2mb 79f 80f
8:50am 5ft 7s 5s 20 25 mph 1016.3mb 79f 80f
7:50am 5.5ft 6s 5s 22 25 mph 1015.9mb 79f 80f
6:50am 5ft 6s 5s 22 27 mph 1015.5mb 79f 80f
5:50am 5ft 6s 5s 22 27 mph 1015.3mb 79f 79f
4:50am 5ft 7s 5s 22 27 mph 1015.1mb 79f 79f
3:50am 5ft 7s 5s 18 22 mph 1014.7mb 79f 78f
2:50am 5.5ft 7s 5s 16 18 mph 1014.6mb 79f 78f
1:50am 5.5ft 7s 5s 13 18 mph 1014mb 80f 77f
12:50am 6ft 7s 5s 18 22 mph 1013.8mb 80f 77f
Thu 07/02 11:50pm 5.5ft 6s 5s 16 18 mph 1014.3mb 80f 76f
10:50pm 6ft 6s 5s 25 29 mph 1014.7mb 80f 82f
9:50pm 5ft 6s 5s 25 29 mph 1014.5mb 80f 82f
8:50pm 4.5ft 6s 4s 25 29 mph 1014.5mb 80f 82f
7:50pm 4.5ft 5s 4s 22 27 mph 1013.8mb 80f 82f
6:50pm 4.5ft 5s 4s 20 25 mph 1013.5mb 80f 82f
5:50pm 4ft 6s 4s 22 25 mph 1013.6mb 80f 82f
4:50pm 4ft 6s 4s 20 22 mph 1014.2mb 80f 82f
3:50pm 4ft 6s 4s 18 22 mph 1015.3mb 80f 82f
2:50pm 4.5ft 6s 5s 18 20 mph 1016mb 80f 82f
1:50pm 4.5ft 6s 4s 18 22 mph 1016.1mb 80f 81f
12:50pm 4ft 6s 5s 20 25 mph 1016.3mb 80f 81f
11:50am 4ft 6s 4s 20 25 mph 1016.3mb 80f 81f
10:50am 3.5ft 6s 4s 20 25 mph 1015.8mb 80f 81f
9:50am 3.5ft 6s 4s 18 22 mph 1015.7mb 80f 81f
8:50am 4ft 6s 4s 18 22 mph 1015.8mb 80f 82f
7:50am 3.5ft 6s 4s 18 20 mph 1015.5mb 80f 81f
6:50am 4ft 5s 4s 16 18 mph 1015mb 80f 81f
5:50am 4ft 6s 5s 13 16 mph 1014.6mb 80f 81f
4:50am 4.5ft 6s 5s 16 18 mph 1014.9mb 80f 81f
3:50am 4.5ft 6s 5s 18 20 mph 1015mb 80f 81f
2:50am 4.5ft 7s 5s 16 18 mph 1015.2mb 80f 82f
1:50am 4.5ft 6s 5s 18 20 mph 1015.9mb 80f 82f
12:50am 4.5ft 7s 5s 18 22 mph 1016.3mb 80f 82f
Wed 07/01 11:50pm 4.5ft 7s 5s 18 22 mph 1016.6mb 80f 82f
10:50pm 5ft 8s 5s 18 22 mph 1016.7mb 80f 81f
9:50pm 4.5ft 6s 5s 18 22 mph 1016mb 80f 81f
8:50pm 5ft 6s 5s 20 22 mph 1015.6mb 80f 81f
7:50pm 5ft 6s 5s 22 27 mph 1015.3mb 80f 81f